Location: Lafig�re
(44.4503°N, 4.0357°E)
Time: 03:27:06
(UTC+00:00)

Transit 4A - Pass Details

Date: 24 January 2021
Orbit: 866 x 978 km, 66.8° (Epoch: 02 March)

Event Time Altitude Azimuth Distance (km) Brightness Sun altitude
Rises 00:43:10 0° 329° (NNW) 3,657 - -62.9°
Reaches altitude 10° 00:47:49 10° 360° (N) 2,685 - -62.5°
Maximum altitude 00:50:05 12° 21° (NNE) 2,531 - -62.3°
Drops below altitude 10° 00:52:18 10° 42° (NE) 2,655 - -62.1°
Sets 00:56:50 0° 73° (ENE) 3,566 - -61.7°
